TimePDT,TemperatureF,Dew PointF,Humidity,Sea Level PressureIn,VisibilityMPH,Wind Direction,Wind SpeedMPH,Gust SpeedMPH,PrecipitationIn,Events,Conditions,WindDirDegrees,DateUTC
12:53 AM,44.1,42.1,93,29.65,5.0,South,3.5,-,0.07,Rain,Light Rain,180,2012-03-11 08:53:00
1:53 AM,43.0,39.9,89,29.65,8.0,South,9.2,-,0.07,Rain,Light Rain,170,2012-03-11 09:53:00
3:38 AM,42.8,39.2,87,29.62,6.0,Variable,3.5,-,0.04,Rain,Light Rain,0,2012-03-11 10:38:00
3:53 AM,42.1,41.0,96,29.64,7.0,SE,4.6,-,0.06,Rain,Light Rain,140,2012-03-11 10:53:00
4:21 AM,42.8,39.2,87,29.61,7.0,SSE,6.9,-,0.03,Rain,Light Rain,150,2012-03-11 11:21:00
4:42 AM,42.8,39.2,87,29.61,9.0,SSE,10.4,-,0.05,Rain,Light Rain,160,2012-03-11 11:42:00
5:44 AM,41.0,39.2,93,29.60,10.0,SSE,5.8,-,0.00,,Overcast,160,2012-03-11 12:44:00
5:53 AM,41.0,39.0,93,29.62,10.0,SSE,5.8,-,0.00,,Overcast,150,2012-03-11 12:53:00
6:03 AM,41.0,39.2,93,29.59,10.0,SE,5.8,-,N/A,,Overcast,130,2012-03-11 13:03:00
6:44 AM,39.2,37.4,93,29.60,10.0,SSE,4.6,-,N/A,,Mostly Cloudy,150,2012-03-11 13:44:00
6:53 AM,41.0,37.9,89,29.62,10.0,SE,4.6,-,N/A,,Mostly Cloudy,140,2012-03-11 13:53:00
7:53 AM,41.0,37.9,89,29.63,10.0,South,4.6,-,N/A,,Overcast,170,2012-03-11 14:53:00
8:06 AM,41.0,37.4,87,29.62,5.0,Variable,5.8,-,0.01,Rain,Light Rain,0,2012-03-11 15:06:00
8:53 AM,39.0,36.0,89,29.64,10.0,SE,5.8,-,0.03,,Overcast,140,2012-03-11 15:53:00
9:53 AM,39.9,37.9,93,29.65,10.0,SE,5.8,-,N/A,,Overcast,130,2012-03-11 16:53:00
10:30 AM,41.0,37.4,87,29.64,5.0,SSE,10.4,-,0.01,Rain,Rain,160,2012-03-11 17:30:00
10:53 AM,41.0,37.9,89,29.66,10.0,South,9.2,-,0.01,,Overcast,170,2012-03-11 17:53:00
11:53 AM,42.1,37.0,82,29.67,10.0,SSE,11.5,17.3,N/A,,Mostly Cloudy,150,2012-03-11 18:53:00
11:58 AM,42.8,37.4,81,29.65,10.0,SSE,11.5,19.6,N/A,,Mostly Cloudy,160,2012-03-11 18:58:00
12:53 PM,43.0,37.0,80,29.70,10.0,SSE,9.2,-,N/A,,Mostly Cloudy,160,2012-03-11 19:53:00
1:53 PM,43.0,36.0,76,29.72,10.0,SSE,10.4,-,N/A,,Overcast,160,2012-03-11 20:53:00
2:30 PM,41.0,35.6,81,29.71,10.0,SE,8.1,-,0.01,,Overcast,140,2012-03-11 21:30:00
2:53 PM,43.0,37.0,80,29.73,10.0,SSE,9.2,-,0.01,,Mostly Cloudy,150,2012-03-11 21:53:00
3:37 PM,39.2,33.8,81,29.74,5.0,South,11.5,21.9,0.01,Rain,Light Rain,170,2012-03-11 22:37:00
3:53 PM,41.0,36.0,82,29.76,10.0,SE,6.9,-,0.01,,Overcast,140,2012-03-11 22:53:00
4:32 PM,39.2,35.6,87,29.77,10.0,SSE,8.1,-,0.01,Rain,Light Rain,150,2012-03-11 23:32:00
4:53 PM,39.0,35.1,86,29.78,10.0,SE,5.8,-,0.01,,Overcast,140,2012-03-11 23:53:00
5:53 PM,41.0,35.1,79,29.79,10.0,SSE,9.2,-,N/A,,Partly Cloudy,150,2012-03-12 00:53:00
6:53 PM,39.9,33.1,77,29.80,10.0,SE,6.9,-,0.00,Rain,Light Rain,140,2012-03-12 01:53:00
7:25 PM,39.2,33.8,81,29.78,10.0,SE,6.9,-,0.00,,Mostly Cloudy,140,2012-03-12 02:25:00
7:53 PM,39.0,34.0,82,29.79,10.0,SSE,4.6,-,0.00,,Mostly Cloudy,150,2012-03-12 02:53:00
8:53 PM,37.9,34.0,86,29.78,10.0,SE,5.8,-,N/A,,Mostly Cloudy,130,2012-03-12 03:53:00
9:53 PM,37.9,33.1,83,29.75,10.0,SSE,5.8,-,N/A,,Overcast,150,2012-03-12 04:53:00
10:53 PM,39.0,32.0,76,29.72,10.0,ESE,8.1,-,N/A,,Overcast,120,2012-03-12 05:53:00
11:53 PM,39.9,30.9,70,29.70,10.0,ESE,8.1,-,N/A,,Overcast,120,2012-03-12 06:53:00
12:53 AM,39.0,30.9,73,29.68,10.0,ESE,6.9,-,N/A,,Overcast,110,2012-03-12 07:53:00